Nausori, Fiji

9:48 AM +12 on March 31, 2017 (GMT +1200)
Nausori International

Weather History for NFNA - January, 2001

Change the Weather History Date:

Saturday, January 6, 2001

  Actual Average Record
Temperature  
Mean Temperature 82 °F -  
Max Temperature 89 °F 87 °F - ()
Min Temperature 75 °F 75 °F - ()
Cooling Degree Days 17    
Growing Degree Days 32 (Base 50)    
Moisture  
Dew Point 75 °F    
Average Humidity 88    
Maximum Humidity 94    
Minimum Humidity 59    
Precipitation  
Precipitation 0.00 in 0.41 in - ()
Sea Level Pressure  
Sea Level Pressure 29.81 in    
Wind  
Wind Speed 2 mph ()    
Max Wind Speed 14 mph    
Max Gust Speed -    
Visibility 3.1 miles    
Events Rain    
T = Trace of Precipitation, MM = Missing Value Source: Averaged Metar Reports

Daily Weather History Graph

Daily Weather History Graph

Search for Another Location

Airport or City:

Trip Planner

Search our weather history database for the weather conditions in past years. The results will help you decide how hot, cold, wet, or windy it might be!

Date:

Astronomy

Jan. 06, 2001 Rise Set
Actual Time 5:36 AM +12 6:46 PM +12
Civil Twilight 5:12 AM +12 7:10 PM +12
Nautical Twilight 4:43 AM +12 7:38 PM +12
Astronomical Twilight 4:14 AM +12 8:08 PM +12
Moon 2:57 PM +12 (1/6) 1:51 AM +12 (1/6)
Length of Visible Light 13h 57m
Length of Day
13h 09m
Waxing Gibbous, 80% of the Moon is Illuminated
Jan 6
Waxing Gibbous
Jan 10
Full
Jan 17
Last Quarter
Jan 25
New
Feb 2
First Quarter

Hourly Weather History & Observations

Time (+12) Temp. Heat Index Dew Point Humidity Pressure Visibility Wind Dir Wind Speed Gust Speed Precip Events Conditions
12:00 AM 77.0 °F - 75.2 °F 94% 29.86 in 24.9 mi Calm Calm - N/A   Scattered Clouds
1:00 AM 77.0 °F - 75.2 °F 94% 29.83 in 24.9 mi Calm Calm - N/A   Scattered Clouds
2:00 AM 77.0 °F - 75.2 °F 94% 29.80 in 24.9 mi Calm Calm - N/A   Scattered Clouds
3:00 AM 75.2 °F - 73.4 °F 94% 29.80 in 24.9 mi Calm Calm - N/A   Partly Cloudy
4:00 AM 75.2 °F - 73.4 °F 94% 29.77 in 24.9 mi Calm Calm - N/A   Partly Cloudy
5:00 AM 75.2 °F - 73.4 °F 94% 29.77 in 24.9 mi Calm Calm - N/A   Scattered Clouds
6:00 AM 75.2 °F - 73.4 °F 94% 29.80 in 31.1 mi Calm Calm - N/A   Mostly Cloudy
7:00 AM 77.0 °F - 75.2 °F 94% 29.80 in 31.1 mi Calm Calm - N/A   Mostly Cloudy
8:00 AM 78.8 °F - 73.4 °F 83% 29.80 in 31.1 mi Calm Calm - N/A   Scattered Clouds
9:00 AM 84.2 °F 94.1 °F 77.0 °F 79% 29.83 in 31.1 mi NNE 5.8 mph - N/A   Mostly Cloudy
10:00 AM 84.2 °F 96.1 °F 78.8 °F 84% 29.83 in 31.1 mi NNE 8.1 mph - N/A   Mostly Cloudy
11:00 AM 86.0 °F 99.3 °F 78.8 °F 79% 29.80 in 31.1 mi NNE 11.5 mph - N/A   Scattered Clouds
12:00 PM 89.6 °F 98.2 °F 73.4 °F 59% 29.80 in 31.1 mi NNE 13.8 mph - N/A   Mostly Cloudy
1:00 PM 89.6 °F 102.2 °F 77.0 °F 66% 29.77 in 31.1 mi NNE 13.8 mph - N/A   Mostly Cloudy
2:00 PM 84.2 °F 94.1 °F 77.0 °F 79% 29.77 in 28.0 mi ENE 11.5 mph - N/A Rain Light Rain Showers
3:00 PM 82.4 °F 92.4 °F 78.8 °F 89% 29.80 in 28.0 mi ENE 8.1 mph - N/A Rain Light Rain Showers
4:00 PM 80.6 °F 88.1 °F 78.8 °F 94% 29.80 in 24.9 mi Calm Calm - N/A Rain Light Rain Showers
5:00 PM 80.6 °F 87.1 °F 77.0 °F 89% 29.80 in 3.1 mi Calm Calm - N/A Rain Rain Showers
6:00 PM 77.0 °F - 75.2 °F 94% 29.80 in 24.9 mi Calm Calm - N/A Rain Light Rain Showers
7:00 PM 77.0 °F - 75.2 °F 94% 29.80 in 24.9 mi Calm Calm - N/A Rain Light Rain Showers
8:00 PM 75.2 °F - 73.4 °F 94% 29.83 in 24.9 mi Calm Calm - N/A   Mostly Cloudy
9:00 PM 75.2 °F - 73.4 °F 94% 29.83 in 24.9 mi Calm Calm - N/A   Mostly Cloudy
10:00 PM 75.2 °F - 73.4 °F 94% 29.83 in 24.9 mi Calm Calm - N/A   Mostly Cloudy
11:00 PM 75.2 °F - 73.4 °F 94% 29.83 in 24.9 mi North 5.8 mph - N/A   Mostly Cloudy